Marshfield, WI

10:02 AM CDT on September 23, 2017 (GMT -0500)
Marshfield Municipal

Weather History for KMFI - February, 2013

Change the Weather History Date:

Sunday, February 17, 2013

  Actual Average Record
Temperature  
Mean Temperature 6 °F -  
Max Temperature 21 °F 28 °F 55 °F (1981)
Min Temperature -9 °F 9 °F -23 °F (1979)
Degree Days  
Heating Degree Days 59    
Moisture  
Dew Point 0 °F    
Average Humidity 66    
Maximum Humidity 83    
Minimum Humidity 48    
Precipitation  
Precipitation 0.00 in - - ()
Sea Level Pressure  
Sea Level Pressure 30.10 in    
Wind  
Wind Speed 5 mph (SE)    
Max Wind Speed 15 mph    
Max Gust Speed 22 mph    
Visibility 10 miles    
Events      
Averages and records for this station are not official NWS values.
T = Trace of Precipitation, MM = Missing Value Source: NWS Daily Summary

Daily Weather History Graph

Daily Weather History Graph

Search for Another Location

Airport or City:

Trip Planner

Search our weather history database for the weather conditions in past years. The results will help you decide how hot, cold, wet, or windy it might be!

Date:

Astronomy

Feb. 17, 2013 Rise Set
Actual Time 6:57 AM CST 5:32 PM CST
Civil Twilight 6:27 AM CST 6:02 PM CST
Nautical Twilight 5:53 AM CST 6:36 PM CST
Astronomical Twilight 5:19 AM CST 7:10 PM CST
Moon 10:31 AM CST (2/17) 12:47 AM CST (2/17)
Length of Visible Light 11h 34m
Length of Day
10h 35m
Waxing Crescent, 49% of the Moon is Illuminated
Feb 17
Waxing Crescent
Feb 17
First Quarter
Feb 25
Full
Mar 4
Last Quarter
Mar 11
New

Hourly Weather History & Observations

Time (CST) Temp. Windchill Dew Point Humidity Pressure Visibility Wind Dir Wind Speed Gust Speed Precip Events Conditions
12:54 AM -2.9 °F - -8.0 °F 79% 30.21 in 10.0 mi Calm Calm - N/A   Clear
1:54 AM -5.1 °F - -9.0 °F 83% 30.22 in 10.0 mi Calm Calm - N/A   Clear
2:54 AM -5.1 °F - -9.9 °F 80% 30.21 in 10.0 mi Calm Calm - N/A   Clear
3:54 AM -6.0 °F - -11.0 °F 79% 30.21 in 8.0 mi Calm Calm - N/A   Clear
4:54 AM -7.1 °F - -11.0 °F 83% 30.20 in 9.0 mi Calm Calm - N/A   Clear
5:54 AM -8.0 °F - -11.9 °F 83% 30.21 in 6.0 mi Calm Calm - N/A   Clear
6:54 AM -9.0 °F -18.2 °F -14.1 °F 79% 30.21 in 7.0 mi East 3.5 mph - N/A   Clear
8:54 AM -0.0 °F -7.9 °F -5.1 °F 79% 30.20 in 9.0 mi SE 3.5 mph - N/A   Clear
9:54 AM 7.0 °F -6.6 °F -2.9 °F 64% 30.19 in 10.0 mi SSE 9.2 mph - N/A   Clear
10:54 AM 10.9 °F -3.4 °F -0.0 °F 61% 30.18 in 10.0 mi South 11.5 mph - N/A   Clear
11:54 AM 14.0 °F -0.2 °F 1.0 °F 56% 30.15 in 10.0 mi SSE 12.7 mph - N/A   Clear
12:54 PM 17.1 °F 5.0 °F 1.9 °F 52% 30.12 in 10.0 mi SSE 10.4 mph - N/A   Clear
1:54 PM 19.0 °F 5.6 °F 3.0 °F 50% 30.09 in 10.0 mi SSE 13.8 mph - N/A   Clear
2:54 PM 21.0 °F 7.6 °F 3.9 °F 48% 30.06 in 10.0 mi SSE 15.0 mph - N/A   Clear
3:54 PM 21.9 °F 9.8 °F 5.0 °F 48% 30.04 in 10.0 mi SSE 12.7 mph - N/A   Clear
4:54 PM 19.0 °F 6.8 °F 3.9 °F 52% 30.02 in 10.0 mi ESE 11.5 mph - N/A   Clear
5:54 PM 19.0 °F 7.5 °F 6.1 °F 57% 30.02 in 10.0 mi SE 10.4 mph - N/A   Clear
6:54 PM 19.0 °F 6.8 °F 6.1 °F 57% 29.99 in 10.0 mi SE 11.5 mph 21.9 mph N/A   Clear
7:54 PM 18.0 °F 5.4 °F 6.1 °F 60% 29.99 in 10.0 mi SE 11.5 mph - N/A   Clear
8:54 PM 17.1 °F 4.3 °F 7.0 °F 65% 29.96 in 10.0 mi SE 11.5 mph - N/A   Partly Cloudy
9:54 PM 19.0 °F 6.8 °F 9.0 °F 65% 29.93 in 10.0 mi SE 11.5 mph 20.7 mph N/A   Overcast
10:54 PM 19.9 °F 7.3 °F 10.9 °F 68% 29.90 in 10.0 mi SSE 12.7 mph - N/A   Scattered Clouds
11:54 PM 21.0 °F 9.3 °F 12.9 °F 71% 29.88 in 10.0 mi SSE 11.5 mph - N/A   Clear